Location: Unspecified
(0.0000°N, 0.0000°E)
Time: 11:50:39
(UTC+00:00)

Explorer 11/Cluster Stage 4 - Visible Passes

Search period start: 07 October 2022 00:00
Search period end: 17 October 2022 00:00
Orbit: 466 x 1249 km, 28.8° (Epoch: 06 October)

Date Brightness Start Highest point End Pass type
(mag) Time Alt. Az. Time Alt. Az. Time Alt. Az.
07 Oct 8.6 04:06:46 13° SSW 04:10:32 25° SSE 04:15:46 10° E visible
07 Oct 7.9 18:46:05 10° W 18:50:17 27° SSW 18:53:52 10° SSE visible
08 Oct 8.2 03:55:43 21° S 03:58:04 28° SSE 04:03:26 10° E visible
08 Oct 8.3 18:33:49 10° W 18:37:54 23° SSW 18:41:25 10° SSE visible
09 Oct 7.8 03:44:43 30° SSE 03:45:37 32° SSE 03:51:02 10° E visible
09 Oct 8.6 18:21:36 10° W 18:25:30 20° SSW 18:28:55 10° SSE visible
10 Oct 7.7 03:33:45 36° SE 03:33:45 36° SE 03:38:36 10° E visible
10 Oct 7.2 05:16:23 10° WSW 05:21:43 49° NNW 05:28:21 10° NE visible
10 Oct 8.7 18:09:25 10° WSW 18:13:07 18° SSW 18:16:22 10° S visible
11 Oct 8.1 03:22:46 30° E 03:22:46 30° E 03:26:07 10° ENE visible
11 Oct 7.3 05:04:51 13° W 05:09:18 40° NNW 05:15:28 10° NE visible
12 Oct 8.7 03:11:47 20° ENE 03:11:47 20° ENE 03:13:37 10° ENE visible
12 Oct 7.5 04:53:51 18° WNW 04:56:56 32° NNW 05:02:31 10° NE visible
13 Oct 9.3 03:00:44 12° ENE 03:00:44 12° ENE 03:01:05 10° ENE visible
13 Oct 7.6 04:42:48 22° NW 04:44:35 26° NNW 04:49:32 10° NNE visible
14 Oct 7.8 04:31:42 20° NNW 04:32:15 21° NNW 04:36:28 10° NNE visible
15 Oct 8.2 04:20:32 16° NNW 04:20:32 16° NNW 04:23:17 10° NNE visible
16 Oct 8.6 04:09:18 11° N 04:09:18 11° N 04:09:50 10° N visible
